Timestamp,Temp,Chill,HIndex,Humid,Dewpt,Wind,HiWind,WindDir,Rain,RainRate,Barom,Solar,ET,UV,InsideTemp,InsideHumid
2015-06-27 00:00:00,58.1,58.1,58.1,85,53.6122321535441,0,1,0,0,0,29.692,0,0.001,0,71.2,55
2015-06-27 00:05:00,58,58,58,85,53.5141993315516,0,3,0,0,0,29.691,0,0,0,71.1,55
2015-06-27 00:10:00,58,58,58,85,53.5141993315516,0,2,0,0,0,29.689,0,0,0,71.1,55
2015-06-27 00:15:00,57.9,57.9,57.9,85,53.4161660825879,0,2,0,0,0,29.691,0,0,0,71.1,55
2015-06-27 00:20:00,57.8,57.8,57.8,85,53.3181324066502,0,0,0,0,0,29.695,0,0,0,71.1,55
2015-06-27 00:25:00,57.7,57.7,57.7,85,53.2200983037357,0,0,0,0,0,29.693,0,0,0,70.7,55
2015-06-27 00:30:00,57.6,57.6,57.6,85,53.1220637738416,0,1,0,0,0,29.694,0,0,0,70.4,55
2015-06-27 00:35:00,57.5,57.5,57.5,85,53.0240288169651,0,0,0,0,0,29.695,0,0,0,70.2,56
2015-06-27 00:40:00,57.4,57.4,57.4,85,52.9259934331034,0,2,0,0,0,29.695,0,0,0,70.2,56
2015-06-27 00:45:00,57.3,57.3,57.3,85,52.8279576222539,0,1,0,0,0,29.694,0,0,0,70.2,56
2015-06-27 00:50:00,57.3,57.3,57.3,85,52.8279576222539,1,5,292.5,0,0,29.698,0,0,0,70.2,56
2015-06-27 00:55:00,57.3,57.3,57.3,85,52.8279576222539,2,5,270,0,0,29.692,0,0,0,69.7,56
2015-06-27 01:00:00,57.2,57.2,57.2,85,52.7299213844135,0,1,0,0,0,29.695,0,0,0,69.2,57
2015-06-27 01:05:00,57.2,57.2,57.2,85,52.7299213844135,0,0,0,0,0,29.695,0,0,0,69.2,57
2015-06-27 01:10:00,57.1,57.1,57.1,85,52.6318847195796,0,2,0,0,0,29.7,0,0,0,69.2,57
2015-06-27 01:15:00,57,57,57,85,52.5338476277494,1,5,270,0,0,29.7,0,0,0,69.2,57
2015-06-27 01:20:00,56.9,56.9,56.9,85,52.4358101089201,1,5,270,0,0,29.697,0,0,0,68.7,57
2015-06-27 01:25:00,56.8,56.8,56.8,85,52.3377721630889,1,4,270,0,0,29.697,0,0,0,68.4,57
2015-06-27 01:30:00,56.7,56.7,56.7,86,52.5577888657868,0,1,0,0,0,29.693,0,0,0,68.2,57
2015-06-27 01:35:00,56.6,56.6,56.6,85,52.1416949904096,0,2,0,0,0,29.696,0,0,0,68.4,57
2015-06-27 01:40:00,56.5,56.5,56.5,85,52.0436557635559,0,0,0,0,0,29.699,0,0,0,68.4,57
2015-06-27 01:45:00,56.4,56.4,56.4,85,51.9456161096892,0,0,0,0,0,29.699,0,0,0,68.4,57
2015-06-27 01:50:00,56.2,56.2,56.2,85,51.7495355209054,0,2,0,0,0,29.703,0,0,0,67.9,57
2015-06-27 01:55:00,56.2,56.2,56.2,85,51.7495355209054,0,0,0,0,0,29.704,0,0,0,67.9,57
2015-06-27 02:00:00,56.1,56.1,56.1,85,51.6514945859828,0,0,0,0,0,29.703,0,0,0,67.5,58
2015-06-27 02:05:00,56,56,56,86,51.870534475753,0,0,0,0,0,29.703,0,0,0,67.5,58
2015-06-27 02:10:00,55.9,55.9,55.9,86,51.7723536886432,0,0,0,0,0,29.704,0,0,0,67.5,58
2015-06-27 02:15:00,55.7,55.7,55.7,86,51.5759909229992,0,3,0,0,0,29.704,0,0,0,67.2,58
2015-06-27 02:20:00,55.7,55.7,55.7,86,51.5759909229992,1,4,270,0,0,29.706,0,0,0,67.4,58
2015-06-27 02:25:00,55.6,55.6,55.6,86,51.4778089444603,0,3,0,0,0,29.711,0,0,0,67.5,58
2015-06-27 02:30:00,55.5,55.5,55.5,86,51.3796265687736,0,2,0,0,0,29.71,0,0,0,67.7,58
2015-06-27 02:35:00,55.5,55.5,55.5,86,51.3796265687736,0,2,0,0,0,29.711,0,0,0,67.5,58
2015-06-27 02:40:00,55.4,55.4,55.4,86,51.2814437959365,1,4,270,0,0,29.714,0,0,0,67.7,58
2015-06-27 02:45:00,55.4,55.4,55.4,86,51.2814437959365,0,4,0,0,0,29.714,0,0,0,67.9,58
2015-06-27 02:50:00,55.4,55.4,55.4,86,51.2814437959365,1,4,270,0,0,29.714,0,0,0,67.9,58
2015-06-27 02:55:00,55.5,55.5,55.5,87,51.692795922373,1,4,270,0,0,29.716,0,0,0,68,57
2015-06-27 03:00:00,55.4,55.4,55.4,87,51.5944756160119,1,4,270,0,0,29.716,0,0,0,68,57
2015-06-27 03:05:00,55.4,55.4,55.4,87,51.5944756160119,0,2,0,0,0,29.718,0,0,0,68,57
2015-06-27 03:10:00,55.3,55.3,55.3,87,51.4961549421699,0,0,0,0,0,29.718,0,0,0,68,57
2015-06-27 03:15:00,55.2,55.2,55.2,87,51.3978339008448,0,0,0,0,0,29.719,0,0,0,68,57
2015-06-27 03:20:00,55.1,55.1,55.1,86,50.9868930944998,0,0,0,0,0,29.718,0,0,0,67.7,57
2015-06-27 03:25:00,55,55,55,86,50.8887087330376,0,2,0,0,0,29.72,0,0,0,67.7,57
2015-06-27 03:30:00,54.9,54.9,54.9,87,51.1028685719507,0,2,0,0,0,29.72,0,0,0,67.7,57
2015-06-27 03:35:00,54.9,54.9,54.9,87,51.1028685719507,0,3,0,0,0,29.721,0,0,0,67.7,57
2015-06-27 03:40:00,54.8,54.8,54.8,87,51.0045460606729,0,2,0,0,0,29.722,0,0,0,67.7,57
2015-06-27 03:45:00,54.8,54.8,54.8,87,51.0045460606729,0,2,0,0,0,29.721,3,0,0,67.7,57
2015-06-27 03:50:00,54.8,54.8,54.8,87,51.0045460606729,1,4,270,0,0,29.723,6,0,0,67.9,57
2015-06-27 03:55:00,54.8,54.8,54.8,87,51.0045460606729,1,4,270,0,0,29.725,7,0,0,68,57
2015-06-27 04:00:00,54.8,54.8,54.8,87,51.0045460606729,0,3,0,0,0,29.726,10,0,0,68,57
2015-06-27 04:05:00,54.8,54.8,54.8,87,51.0045460606729,1,4,270,0,0,29.729,14,0,0,68.2,57
2015-06-27 04:10:00,54.7,54.7,54.7,87,50.9062231819018,0,2,0,0,0,29.731,17,0,0,68.2,57
2015-06-27 04:15:00,54.7,54.7,54.7,87,50.9062231819018,0,1,0,0,0,29.733,20,0,0,68.4,57
2015-06-27 04:20:00,54.7,54.7,54.7,87,50.9062231819018,0,2,0,0,0,29.729,25,0,0,67.9,57
2015-06-27 04:25:00,54.6,54.6,54.6,87,50.8078999356352,0,1,0,0,0,29.732,26,0,0,67.9,57
2015-06-27 04:30:00,54.6,54.6,54.6,87,50.8078999356352,0,2,0,0,0,29.731,29,0,0,67.7,57
2015-06-27 04:35:00,54.6,54.6,54.6,87,50.8078999356352,0,0,0,0,0,29.732,33,0,0,67.9,57
2015-06-27 04:40:00,54.5,54.5,54.5,87,50.7095763218712,0,1,0,0,0,29.735,35,0,0,67.4,57
2015-06-27 04:45:00,54.5,54.5,54.5,87,50.7095763218712,0,0,0,0,0,29.734,37,0,0,67.2,57
2015-06-27 04:50:00,54.5,54.5,54.5,87,50.7095763218712,0,0,0,0,0,29.733,42,0,0,67.2,57
2015-06-27 04:55:00,54.5,54.5,54.5,88,51.0182367731272,0,0,0,0,0,29.736,52,0,0,67.2,57
2015-06-27 05:00:00,54.5,54.5,54.5,88,51.0182367731272,0,0,0,0,0,29.738,84,0.001,0,67.4,57
2015-06-27 05:05:00,54.5,54.5,54.5,88,51.0182367731272,0,0,0,0,0,29.741,109,0,0,67.5,57
2015-06-27 05:10:00,54.7,54.7,54.7,88,51.215155624223,0,0,0,0,0,29.741,110,0,0,67.2,57
2015-06-27 05:15:00,54.9,54.9,54.9,88,51.4120731231717,0,0,0,0,0,29.743,129,0,0,67.2,57
2015-06-27 05:20:00,55.1,55.1,55.1,88,51.6089892699874,0,0,0,0,0,29.743,158,0,0,67.4,57
2015-06-27 05:25:00,55.5,55.5,55.5,89,52.3097584916818,0,1,0,0,0,29.745,187,0,0,67.2,57
2015-06-27 05:30:00,55.9,55.9,55.9,89,52.704121553036,0,1,0,0,0,29.742,199,0,0,67,58
2015-06-27 05:35:00,56.4,56.4,56.4,89,53.1970684323646,0,1,0,0,0,29.744,217,0,0,66.9,58
2015-06-27 05:40:00,56.8,56.8,56.8,88,53.2827219275146,1,5,270,0,0,29.744,222,0,0,66.9,58
2015-06-27 05:45:00,56.9,56.9,56.9,88,53.3811737476367,2,5,270,0,0,29.745,229,0,0.2,67.2,58
2015-06-27 05:50:00,57.1,57.1,57.1,88,53.5780763738874,0,4,0,0,0,29.745,221,0,0,67.5,57
2015-06-27 05:55:00,57.3,57.3,57.3,87,53.4624985999738,1,5,225,0,0,29.749,198,0,0,67.7,57
2015-06-27 06:00:00,57.5,57.5,57.5,87,53.6591248817619,0,4,0,0,0,29.751,199,0.004,0,67.7,56
2015-06-27 06:05:00,57.6,57.6,57.6,86,53.4413730603519,2,7,270,0,0,29.75,200,0,0,67.5,56
2015-06-27 06:10:00,57.8,57.8,57.8,85,53.3181324066502,1,5,0,0,0,29.75,234,0,0,67.7,56
2015-06-27 06:15:00,58,58,58,84,53.1910091593261,2,6,337.5,0,0,29.749,246,0,0.5,67.7,56
2015-06-27 06:20:00,58.2,58.2,58.2,84,53.3867923958973,2,6,292.5,0,0,29.748,258,0,0.6,67.7,56
2015-06-27 06:25:00,58.6,58.6,58.6,83,53.4509109165141,2,6,337.5,0,0,29.748,269,0,0.6,67.7,56
2015-06-27 06:30:00,59,59,59,82,53.5103919883795,2,7,337.5,0,0,29.75,281,0,0.7,67.9,55
2015-06-27 06:35:00,59,59,59,80,52.8365931705396,2,6,315,0,0,29.75,294,0,0.7,68,55
2015-06-27 06:40:00,59.2,59.2,59.2,79,52.6884448219811,2,8,337.5,0,0,29.748,308,0,0.8,68.2,54
2015-06-27 06:45:00,59.6,59.6,59.6,77,52.3787455321524,1,6,337.5,0,0,29.752,318,0,0.9,68.4,54
2015-06-27 06:50:00,60.1,60.1,60.1,75,52.1470119358963,1,5,292.5,0,0,29.753,329,0,1,68.7,54
2015-06-27 06:55:00,61,61,61,74,52.6501346326353,0,4,0,0,0,29.754,339,0,1,68.9,54
2015-06-27 07:00:00,61.3,61.3,61.3,72,52.1936370209593,1,6,247.5,0,0,29.756,353,0.006,1,68.9,53
2015-06-27 07:05:00,61.8,61.8,61.8,69,51.5181294863567,1,6,270,0,0,29.753,368,0,1.1,68.7,52
2015-06-27 07:10:00,62,62,62,67,50.9132554612909,3,7,270,0,0,29.756,384,0,1.2,68.9,51
2015-06-27 07:15:00,62.3,62.3,62.3,66,50.7925232052579,3,8,225,0,0,29.757,401,0,1.3,68.9,51
2015-06-27 07:20:00,62.1,62.1,62.1,66,50.6024416395525,3,9,225,0,0,29.759,412,0,1.4,69,50
2015-06-27 07:25:00,62.6,62.6,62.6,66,51.0776377386195,4,9,247.5,0,0,29.763,426,0,1.4,69.2,50
2015-06-27 07:30:00,62.7,62.7,62.7,63,49.918078110742,5,11,247.5,0,0,29.766,438,0,1.6,69.4,49
2015-06-27 07:35:00,63,63,63,63,50.2015816027779,4,10,292.5,0,0,29.768,446,0,1.7,69.4,49
2015-06-27 07:40:00,62.8,62.8,62.8,61,49.1462992619952,6,13,225,0,0,29.773,461,0,1.8,69.6,47
2015-06-27 07:45:00,62.8,62.8,62.8,61,49.1462992619952,5,13,247.5,0,0,29.769,473,0,1.9,69.6,47
2015-06-27 07:50:00,63.3,63.3,63.3,60,49.1734739330182,3,8,247.5,0,0,29.771,487,0,2,69.7,47
2015-06-27 07:55:00,63.3,63.3,63.3,60,49.1734739330182,5,13,270,0,0,29.775,497,0,2,69.7,46
2015-06-27 08:00:00,63.6,63.6,63.6,60,49.4552926200249,5,11,315,0,0,29.772,513,0.011,2.2,69.9,46
2015-06-27 08:05:00,64,64,64,60,49.8310332458139,4,9,247.5,0,0,29.773,549,0,2.4,70.1,46
2015-06-27 08:10:00,63.9,63.9,63.9,60,49.7370999775286,6,10,337.5,0,0,29.772,510,0,2,70.1,46
2015-06-27 08:15:00,63.3,63.3,63.3,58,48.2666456433402,7,14,292.5,0,0,29.773,571,0,2.3,70.2,46
2015-06-27 08:20:00,63.9,63.9,63.9,57,48.3630263920831,4,11,225,0,0,29.773,584,0,2.8,70.2,44
2015-06-27 08:25:00,64.4,64.4,64.4,57,48.8297865826918,5,12,315,0,0,29.778,595,0,2.9,70.2,45
2015-06-27 08:30:00,64.6,64.6,64.6,57,49.0164810531349,6,11,315,0,0,29.774,623,0,2.8,70.2,45
2015-06-27 08:35:00,64.9,64.9,64.9,58,49.7634188549284,4,14,247.5,0,0,29.775,652,0,3.1,70.4,44
2015-06-27 08:40:00,65.5,65.5,65.5,57,49.8565382513856,5,11,292.5,0,0,29.78,672,0,2.6,70.4,45
2015-06-27 08:45:00,65.2,65.2,65.2,57,49.5765315334384,4,14,247.5,0,0,29.776,184,0,2.1,70.6,45
2015-06-27 08:50:00,65.4,65.4,65.4,57,49.763204050671,3,9,315,0,0,29.778,747,0,3,70.6,45
2015-06-27 08:55:00,64.8,64.8,64.8,57,49.2031700349123,6,15,270,0,0,29.783,184,0,2.3,70.7,45
2015-06-27 09:00:00,63.9,63.9,63.9,59,49.2859260529967,6,13,292.5,0,0,29.78,149,0.012,2.5,70.7,44
2015-06-27 09:05:00,63.7,63.7,63.7,59,49.0984359106561,7,14,292.5,0,0,29.782,290,0,2.3,70.6,44
2015-06-27 09:10:00,63.3,63.3,63.3,60,49.1734739330182,5,16,315,0,0,29.784,163,0,2,70.6,44
2015-06-27 09:15:00,64,64,64,60,49.8310332458139,4,12,270,0,0,29.782,682,0,4,70.6,45
2015-06-27 09:20:00,65.3,65.3,65.3,57,49.669868478032,5,13,315,0,0,29.783,693,0,4.2,70.6,45
2015-06-27 09:25:00,65.4,65.4,65.4,57,49.763204050671,6,12,225,0,0,29.783,726,0,4,70.6,45
2015-06-27 09:30:00,66.1,66.1,66.1,56,49.9399597649621,5,16,225,0,0,29.785,756,0,4,70.6,45
2015-06-27 09:35:00,65.9,65.9,65.9,56,49.7537047918138,5,16,202.5,0,0,29.785,742,0,4.5,70.7,44
2015-06-27 09:40:00,67.7,67.7,67.7,55,50.9424595860861,3,11,292.5,0,0,29.787,818,0,4.8,70.9,44
2015-06-27 09:45:00,67.5,67.5,67.5,54,50.2618775222523,5,11,270,0,0,29.789,516,0,2.9,71.1,44
2015-06-27 09:50:00,65.6,65.6,65.6,56,49.4743117537086,5,13,292.5,0,0,29.791,169,0,2,71.2,44
2015-06-27 09:55:00,64.6,64.6,64.6,58,49.4827998906195,5,12,315,0,0,29.793,144,0,3.8,71.4,44
2015-06-27 10:00:00,66.1,66.1,66.1,56,49.9399597649621,3,9,337.5,0,0,29.79,903,0.014,4.4,71.6,44
2015-06-27 10:05:00,67,67,67,54,49.7983693440622,4,12,292.5,0,0,29.792,288,0,3.4,71.8,44
2015-06-27 10:10:00,66.5,66.5,66.5,56,50.3124527869996,3,11,225,0,0,29.792,176,0,2.8,71.8,43
2015-06-27 10:15:00,66.9,66.9,66.9,54,49.7056632424887,4,10,225,0,0,29.791,936,0,4.9,71.9,42
2015-06-27 10:20:00,67.8,67.8,67.8,53,50.0364373011453,5,13,337.5,0,0,29.794,941,0,5.4,72.3,43
2015-06-27 10:25:00,68.2,68.2,68.2,51,49.3720148172439,5,15,247.5,0,0,29.789,433,0,3.4,72.4,42
2015-06-27 10:30:00,67.1,67.1,67.1,53,49.3890086668659,6,14,292.5,0,0,29.791,476,0,4.5,72.6,41
2015-06-27 10:35:00,68.3,68.3,68.3,53,50.4988404736624,4,11,202.5,0,0,29.792,913,0,5.9,72.6,42
2015-06-27 10:40:00,68.2,68.2,68.2,53,50.4063628956791,6,10,315,0,0,29.793,476,0,2.8,72.8,42
2015-06-27 10:45:00,67.1,67.1,67.1,54,49.8910739569428,4,11,270,0,0,29.794,192,0,2,72.8,42
2015-06-27 10:50:00,66.7,66.7,66.7,56,50.4986908364016,4,9,270,0,0,29.797,307,0,4.4,73,42
2015-06-27 10:55:00,66.9,66.9,66.9,56,50.6849232450673,5,10,315,0,0,29.796,266,0,3,73,43
2015-06-27 11:00:00,67.3,67.3,67.3,54,50.0764787167684,5,9,315,0,0,29.795,683,0.015,4.8,73.1,42
2015-06-27 11:05:00,67.7,67.7,67.7,53,49.9439520816724,6,14,247.5,0,0,29.796,288,0,2.3,73.1,42
2015-06-27 11:10:00,67,67,67,53,49.2965127477163,6,14,292.5,0,0,29.795,301,0,3.2,73.3,41
2015-06-27 11:15:00,67.1,67.1,67.1,54,49.8910739569428,4,10,247.5,0,0,29.8,223,0,2.2,73.3,41
2015-06-27 11:20:00,66.8,66.8,66.8,54,49.6129556521863,4,10,292.5,0,0,29.798,180,0,1.5,73.3,41
2015-06-27 11:25:00,68.1,68.1,68.1,54,50.8180382155221,4,10,292.5,0,0,29.799,868,0,5.4,73.3,41
2015-06-27 11:30:00,68.7,68.7,68.7,53,50.868735504132,4,8,247.5,0,0,29.796,583,0,4.6,73.5,42
2015-06-27 11:35:00,68.6,68.6,68.6,53,50.7762640386584,4,12,270,0,0,29.796,426,0,4.1,73.6,42
2015-06-27 11:40:00,68.5,68.5,68.5,53,50.6837910451142,4,9,202.5,0,0,29.794,319,0,2.4,74,42
2015-06-27 11:45:00,68.1,68.1,68.1,53,50.3138837894736,3,8,270,0,0,29.797,204,0,1.8,73.8,41
2015-06-27 11:50:00,67.5,67.5,67.5,54,50.2618775222523,4,10,225,0,0,29.795,290,0,3.4,73.8,40
2015-06-27 11:55:00,67.5,67.5,67.5,53,49.758977057454,3,9,270,0,0,29.797,254,0,2.2,74,41
2015-06-27 12:00:00,67.8,67.8,67.8,53,50.0364373011453,4,10,225,0,0,29.794,321,0.01,2.8,74.2,40
2015-06-27 12:05:00,68.3,68.3,68.3,52,49.9858271431455,3,8,292.5,0,0,29.796,344,0,3.5,74.3,40
2015-06-27 12:10:00,69.4,69.4,69.4,51,50.4765007360549,5,13,202.5,0,0,29.797,975,0,6.9,74.2,40
2015-06-27 12:15:00,70.1,70.1,70.1,49,50.0416020971132,6,13,225,0,0,29.799,494,0,4.7,74.3,40
2015-06-27 12:20:00,69.8,69.8,69.8,50,50.3104774226331,5,16,225,0,0,29.802,745,0,5.8,74.5,39
2015-06-27 12:25:00,70.8,70.8,70.8,49,50.6825913496711,2,9,202.5,0,0,29.804,797,0,4.9,74.5,40
2015-06-27 12:30:00,71,71,71,47,49.7430599259833,4,9,247.5,0,0,29.803,366,0,4.4,74.7,39
2015-06-27 12:35:00,70,70,70,49,49.9500254361193,10,24,225,0,0,29.805,882,0,6.2,74.7,39
2015-06-27 12:40:00,70.2,70.2,70.2,48,49.578811950675,9,19,225,0,0,29.8,1016,0,7.1,74.7,39
2015-06-27 12:45:00,71.3,71.3,71.3,47,50.0163548375405,7,14,247.5,0,0,29.801,998,0,6.9,74.9,38
2015-06-27 12:50:00,72,72,72,46,50.0744508777049,7,15,225,0,0,29.803,1015,0,6.8,75,38
2015-06-27 12:55:00,71.8,71.8,71.8,46,49.8927533937014,8,16,202.5,0,0,29.801,1004,0,6.7,75.2,38
2015-06-27 13:00:00,71.9,71.9,71.9,45,49.393127956676,6,16,270,0,0,29.808,845,0.021,5.6,75.4,38
2015-06-27 13:05:00,72.1,72.1,72.1,45,49.5743407511126,7,18,292.5,0,0,29.803,978,0,6.7,75.4,38
2015-06-27 13:10:00,72.6,72.6,72.6,46,50.6194996527253,6,16,225,0,0,29.802,915,0,6.4,75.6,38
2015-06-27 13:15:00,72.4,72.4,72.4,45,49.8461459631026,7,18,225,0,0,29.798,923,0,6.4,75.7,37
2015-06-27 13:20:00,71.4,71.4,71.4,46,49.5293365845743,8,14,247.5,0,0,29.797,492,0,4.3,75.9,37
2015-06-27 13:25:00,72.3,72.3,72.3,46,50.3469834542405,5,16,202.5,0,0,29.797,984,0,6.5,76.1,37
2015-06-27 13:30:00,72.9,72.9,72.9,46,50.8919994746353,5,13,202.5,0,0,29.797,536,0,4.5,76.3,38
2015-06-27 13:35:00,71.9,71.9,71.9,47,50.5628966880448,5,15,202.5,0,0,29.798,305,0,2.9,76.3,37
2015-06-27 13:40:00,70.9,70.9,70.9,48,50.2181957512285,6,13,225,0,0,29.799,411,0,3.3,76.3,38
2015-06-27 13:45:00,70.5,70.5,70.5,49,50.4078918211915,8,24,225,0,0,29.8,432,0,4.3,76.3,38
2015-06-27 13:50:00,71,71,71,49,50.8657159100374,5,13,247.5,0,0,29.799,941,0,5.6,76.3,38
2015-06-27 13:55:00,70.9,70.9,70.9,49,50.774154475685,6,15,225,0,0,29.799,279,0,3.6,76.3,38
2015-06-27 14:00:00,70.9,70.9,70.9,49,50.774154475685,7,13,225,0,0,29.798,658,0.019,4,76.3,38
2015-06-27 14:05:00,70.8,70.8,70.8,49,50.6825913496711,6,22,225,0,0,29.798,677,0,4.4,76.3,38
2015-06-27 14:10:00,71,71,71,49,50.8657159100374,4,11,270,0,0,29.799,409,0,3.5,76.3,38
2015-06-27 14:15:00,70.1,70.1,70.1,51,51.1206771812439,6,14,292.5,0,0,29.798,235,0,2.1,76.3,39
2015-06-27 14:20:00,70.1,70.1,70.1,51,51.1206771812439,5,13,225,0,0,29.798,782,0,4.8,76.3,38
2015-06-27 14:25:00,71,71,71,48,50.3095293575014,7,20,292.5,0,0,29.798,605,0,3.9,76.3,38
2015-06-27 14:30:00,70.6,70.6,70.6,48,49.9441845278099,6,13,270,0,0,29.794,552,0,4.1,76.1,37
2015-06-27 14:35:00,71.3,71.3,71.3,48,50.5835197724118,7,16,225,0,0,29.801,519,0,2.8,76.3,38
2015-06-27 14:40:00,70.4,70.4,70.4,48,49.7615017078704,6,16,225,0,0,29.798,390,0,2.7,76.4,38
2015-06-27 14:45:00,70.8,70.8,70.8,48,50.1268604108885,8,14,315,0,0,29.795,816,0,4.8,76.4,37
2015-06-27 14:50:00,70.8,70.8,70.8,47,49.5608544335087,7,15,292.5,0,0,29.796,491,0,3.7,76.4,37
2015-06-27 14:55:00,71.4,71.4,71.4,48,50.6748464429103,6,12,292.5,0,0,29.796,796,0,4.6,76.4,37
2015-06-27 15:00:00,73.1,73.1,73.1,46,51.0736569252073,4,13,157.5,0,0,29.8,764,0.017,4.4,76.3,38
2015-06-27 15:05:00,72.4,72.4,72.4,45,49.8461459631026,5,11,270,0,0,29.802,508,0,3.1,76.3,37
2015-06-27 15:10:00,71.3,71.3,71.3,47,50.0163548375405,5,11,270,0,0,29.802,554,0,3.4,76.3,37
2015-06-27 15:15:00,72.6,72.6,72.6,47,51.2004480168475,4,14,247.5,0,0,29.803,770,0,4.1,76.3,37
2015-06-27 15:20:00,72.4,72.4,72.4,45,49.8461459631026,7,14,247.5,0,0,29.808,740,0,4,76.4,37
2015-06-27 15:25:00,72.1,72.1,72.1,45,49.5743407511126,7,16,292.5,0,0,29.806,777,0,3.7,76.4,37
2015-06-27 15:30:00,71.9,71.9,71.9,44,48.7909976430316,8,16,315,0,0,29.807,731,0,3.8,76.3,36
2015-06-27 15:35:00,72,72,72,44,48.8813600506141,6,13,225,0,0,29.81,685,0,3.6,76.3,35
2015-06-27 15:40:00,71.8,71.8,71.8,44,48.7006333266623,6,12,292.5,0,0,29.806,508,0,3,76.3,35
2015-06-27 15:45:00,71.7,71.7,71.7,44,48.6102671014459,6,13,270,0,0,29.807,682,0,3.2,76.3,35
2015-06-27 15:50:00,71.8,71.8,71.8,43,48.0865920376443,6,18,225,0,0,29.811,484,0,2.9,76.3,35
2015-06-27 15:55:00,71.5,71.5,71.5,44,48.4295289242293,5,15,0,0,0,29.811,677,0,2.8,76.3,35
2015-06-27 16:00:00,71.7,71.7,71.7,43,47.9964752481354,6,15,202.5,0,0,29.806,664,0.018,2.8,76.1,35
2015-06-27 16:05:00,71.9,71.9,71.9,44,48.7909976430316,5,16,292.5,0,0,29.808,669,0,2.9,76.1,35
2015-06-27 16:10:00,72.3,72.3,72.3,44,49.1524358212459,5,13,292.5,0,0,29.806,662,0,2.6,76.3,35
2015-06-27 16:15:00,72.1,72.1,72.1,44,48.9717205494703,5,11,315,0,0,29.804,639,0,2.5,76.3,35
2015-06-27 16:20:00,71.3,71.3,71.3,45,48.8494448333759,6,12,202.5,0,0,29.809,188,0,1.2,76.3,36
2015-06-27 16:25:00,70.5,70.5,70.5,47,49.2875328666022,3,8,202.5,0,0,29.806,193,0,0.9,76.1,36
2015-06-27 16:30:00,70.7,70.7,70.7,48,50.0355233364321,4,9,270,0,0,29.805,428,0,1.7,76.3,37
2015-06-27 16:35:00,70.9,70.9,70.9,48,50.2181957512285,3,11,0,0,0,29.802,251,0,1.2,76.4,37
2015-06-27 16:40:00,70,70,70,49,49.9500254361193,5,11,315,0,0,29.805,166,0,0.6,76.4,37
2015-06-27 16:45:00,69.9,69.9,69.9,50,50.40228106009,5,10,270,0,0,29.806,158,0,0.3,76.4,37
2015-06-27 16:50:00,69.8,69.8,69.8,51,50.8446112153344,4,9,292.5,0,0,29.806,135,0,0,76.4,38
2015-06-27 16:55:00,69.2,69.2,69.2,51,50.2924358421984,7,12,225,0,0,29.807,108,0,0,76.3,37
2015-06-27 17:00:00,69,69,69,52,50.631639258237,7,14,202.5,0,0,29.807,71,0.01,0,76.1,38
2015-06-27 17:05:00,68.8,68.8,68.8,52,50.4471293533341,6,12,225,0,0,29.805,64,0,0,75.7,38
2015-06-27 17:10:00,68.7,68.7,68.7,52,50.3548720482828,5,12,225,0,0,29.81,89,0,0,75.7,39
2015-06-27 17:15:00,68.4,68.4,68.4,53,50.5913165234615,4,10,202.5,0,0,29.808,119,0,0,75.4,39
2015-06-27 17:20:00,68.5,68.5,68.5,53,50.6837910451142,4,9,225,0,0,29.808,99,0,0,75.2,39
2015-06-27 17:25:00,68.3,68.3,68.3,54,51.0034132065075,5,14,225,0,0,29.81,72,0,0,75.4,40
2015-06-27 17:30:00,68.1,68.1,68.1,54,50.8180382155221,5,13,225,0,0,29.81,67,0,0,75.2,40
2015-06-27 17:35:00,68.1,68.1,68.1,54,50.8180382155221,3,8,202.5,0,0,29.809,67,0,0,75.2,40
2015-06-27 17:40:00,68.1,68.1,68.1,54,50.8180382155221,3,10,225,0,0,29.807,67,0,0,75,40
2015-06-27 17:45:00,67.9,67.9,67.9,55,51.1282581805068,5,13,202.5,0,0,29.809,69,0,0,75,40
2015-06-27 17:50:00,67.9,67.9,67.9,55,51.1282581805068,3,9,202.5,0,0,29.81,106,0,0,74.9,41
2015-06-27 17:55:00,67.9,67.9,67.9,55,51.1282581805068,6,12,202.5,0,0,29.809,95,0,0,75,41
2015-06-27 18:00:00,67.9,67.9,67.9,56,51.6160006863217,2,8,202.5,0,0,29.809,48,0.004,0,74.9,41
2015-06-27 18:05:00,67.8,67.8,67.8,57,52.0028462862471,3,8,202.5,0,0,29.812,29,0,0,75,42
2015-06-27 18:10:00,67.7,67.7,67.7,58,52.3819504170931,3,9,225,0,0,29.809,29,0,0,74.9,42
2015-06-27 18:15:00,67.5,67.5,67.5,58,52.1949471141393,4,10,247.5,0,0,29.813,34,0,0,74.9,42
2015-06-27 18:20:00,67.5,67.5,67.5,57,51.7229342081297,3,9,202.5,0,0,29.811,64,0,0,74.9,42
2015-06-27 18:25:00,67.6,67.6,67.6,56,51.3366922582995,3,9,202.5,0,0,29.811,79,0,0,74.9,42
2015-06-27 18:30:00,67.7,67.7,67.7,56,51.4297964774933,1,6,202.5,0,0,29.811,104,0,0,74.9,42
2015-06-27 18:35:00,67.7,67.7,67.7,56,51.4297964774933,3,8,247.5,0,0,29.813,124,0,0,75,41
2015-06-27 18:40:00,67.8,67.8,67.8,56,51.5228992868233,2,9,247.5,0,0,29.816,130,0,0,75,41
2015-06-27 18:45:00,67.8,67.8,67.8,55,51.0353596077447,4,9,202.5,0,0,29.817,100,0,0,75,41
2015-06-27 18:50:00,67.7,67.7,67.7,55,50.9424595860861,3,11,225,0,0,29.817,75,0,0,75.2,41
2015-06-27 18:55:00,67.8,67.8,67.8,55,51.0353596077447,2,8,225,0,0,29.819,143,0,0,75.2,41
2015-06-27 19:00:00,68.1,68.1,68.1,55,51.3140509794766,3,6,270,0,0,29.816,159,0.003,0,75.4,41
2015-06-27 19:05:00,68.1,68.1,68.1,54,50.8180382155221,5,13,225,0,0,29.817,139,0,0,75.6,41
2015-06-27 19:10:00,67.9,67.9,67.9,55,51.1282581805068,3,7,202.5,0,0,29.818,109,0,0,75.7,40
2015-06-27 19:15:00,67.8,67.8,67.8,55,51.0353596077447,3,10,247.5,0,0,29.818,126,0,0,75.7,40
2015-06-27 19:20:00,67.6,67.6,67.6,56,51.3366922582995,2,8,225,0,0,29.816,62,0,0,75.9,40
2015-06-27 19:25:00,67.3,67.3,67.3,57,51.5363192996549,1,9,225,0,0,29.817,38,0,0,75.7,40
2015-06-27 19:30:00,67,67,67,58,51.7274155275165,2,6,202.5,0,0,29.817,36,0,0,75.6,41
2015-06-27 19:35:00,66.6,66.6,66.6,59,51.8165355890672,2,7,202.5,0,0,29.819,23,0,0,75.6,41
2015-06-27 19:40:00,66.4,66.4,66.4,60,52.0850541231079,2,8,247.5,0,0,29.82,17,0,0,75.6,42
2015-06-27 19:45:00,66.2,66.2,66.2,61,52.3461791354259,2,6,270,0,0,29.822,16,0,0,75.4,42
2015-06-27 19:50:00,66.1,66.1,66.1,61,52.2520851747163,1,5,270,0,0,29.822,16,0,0,75.2,42
2015-06-27 19:55:00,65.8,65.8,65.8,62,52.411564322678,1,4,225,0,0,29.819,18,0,0,75.2,43
2015-06-27 20:00:00,65.6,65.6,65.6,62,52.2229940023059,1,6,225,0,0,29.822,18,0.002,0,75,43
2015-06-27 20:05:00,65.4,65.4,65.4,62,52.0344189435571,2,6,292.5,0,0,29.82,15,0,0,75,43
2015-06-27 20:10:00,65.3,65.3,65.3,63,52.3747649171361,1,7,315,0,0,29.82,12,0,0,75,43
2015-06-27 20:15:00,65.2,65.2,65.2,63,52.2802913197327,1,5,337.5,0,0,29.82,11,0,0,75,43
2015-06-27 20:20:00,65.1,65.1,65.1,62,51.7515474705869,1,4,337.5,0,0,29.817,9,0,0,75,43
2015-06-27 20:25:00,64.9,64.9,64.9,63,51.9968636372334,1,3,337.5,0,0,29.816,6,0,0,75,43
2015-06-27 20:30:00,64.8,64.8,64.8,63,51.9023854462341,1,4,292.5,0,0,29.814,2,0,0,75,43
2015-06-27 20:35:00,64.7,64.7,64.7,63,51.8079061067835,0,3,0,0,0,29.817,0,0,0,75,43
2015-06-27 20:40:00,64.8,64.8,64.8,63,51.9023854462341,0,2,0,0,0,29.82,0,0,0,74.9,43
2015-06-27 20:45:00,64.8,64.8,64.8,63,51.9023854462341,0,1,0,0,0,29.822,0,0,0,74.7,43
2015-06-27 20:50:00,64.9,64.9,64.9,63,51.9968636372334,1,5,292.5,0,0,29.822,0,0,0,74.2,43
2015-06-27 20:55:00,65.1,65.1,65.1,63,52.1858165739617,1,5,247.5,0,0,29.824,0,0,0,74.2,44
2015-06-27 21:00:00,65.2,65.2,65.2,62,51.845839146253,3,6,247.5,0,0,29.821,0,0.001,0,73.8,44
2015-06-27 21:05:00,65.2,65.2,65.2,62,51.845839146253,2,8,202.5,0,0,29.828,0,0,0,73.8,44
2015-06-27 21:10:00,65.2,65.2,65.2,62,51.845839146253,3,6,202.5,0,0,29.83,0,0,0,73.6,44
2015-06-27 21:15:00,65.1,65.1,65.1,62,51.7515474705869,3,8,202.5,0,0,29.832,0,0,0,73.5,44
2015-06-27 21:20:00,65.1,65.1,65.1,63,52.1858165739617,1,5,202.5,0,0,29.828,0,0,0,73.3,45
2015-06-27 21:25:00,65,65,65,63,52.0913406798023,3,7,202.5,0,0,29.829,0,0,0,73.1,45
2015-06-27 21:30:00,64.8,64.8,64.8,63,51.9023854462341,2,6,202.5,0,0,29.827,0,0,0,73.1,45
2015-06-27 21:35:00,64.7,64.7,64.7,63,51.8079061067835,4,9,225,0,0,29.821,0,0,0,73,45
2015-06-27 21:40:00,64.6,64.6,64.6,63,51.7134256188606,3,9,202.5,0,0,29.824,0,0,0,72.8,45
2015-06-27 21:45:00,64.5,64.5,64.5,63,51.6189439824446,2,8,202.5,0,0,29.824,0,0,0,72.6,45
2015-06-27 21:50:00,64.3,64.3,64.3,64,51.8567864625098,3,8,202.5,0,0,29.821,0,0,0,72.4,45
2015-06-27 21:55:00,64.1,64.1,64.1,64,51.6674544169905,3,8,157.5,0,0,29.82,0,0,0,72.4,46